Location: Cosy Dell
(34.2789°N, 117.4537°W)
Time: 20:28:30
(UTC+00:00)

Meteor 2-2 Rocket - Pass Details

Date: 14 July 2020
Orbit: 852 x 929 km, 81.3° (Epoch: 13 August)

Event Time Altitude Azimuth Distance (km) Brightness Sun altitude
Rises 05:18:03 0° 350° (N) 3,467 8.4 -22.7°
Reaches altitude 10° 05:20:30 10° 349° (NNW) 2,516 7.5 -23.0°
Maximum altitude 05:26:11 77° 264° (W) 883 4.2 -23.8°
Enters shadow 05:27:51 47° 189° (S) 1,118 4.5 -24.0°
